GW5073 Weather Reports


Display with metric or nautical units.
time (UTC)temp
F
wind
direction
speed
MPH
gust
MPH
rain 1hr
in
rain 24hr
in
rain mn
in
humidity
%
barometer
mb
20260502215327 87 127 9.0 9.0 0.00 0.00 0.00 18 1012.7
20260502214823 87 107 9.0 11.0 0.00 0.00 0.00 18 1012.9
20260502214320 87 67 8.0 11.0 0.00 0.00 0.00 18 1012.9
20260502213817 87 49 6.0 8.0 0.00 0.00 0.00 18 1012.9
20260502213314 87 102 8.0 9.0 0.00 0.00 0.00 18 1013.0
20260502212813 87 249 3.0 4.0 0.00 0.00 0.00 18 1013.0
20260502212311 88 139 11.0 11.0 0.00 0.00 0.00 18 1013.1
20260502211808 87 154 6.0 6.0 0.00 0.00 0.00 18 1013.2
20260502211303 88 148 6.0 7.0 0.00 0.00 0.00 18 1013.3
20260502210801 88 109 9.0 11.0 0.00 0.00 0.00 18 1013.2
20260502210259 87 358 5.0 7.0 0.00 0.00 0.00 18 1013.2
20260502205755 86 108 5.0 6.0 0.00 0.00 0.00 19 1013.5
20260502205251 86 136 5.0 7.0 0.00 0.00 0.00 18 1013.6
20260502204749 86 92 6.0 7.0 0.00 0.00 0.00 19 1013.5
20260502204246 86 128 10.0 11.0 0.00 0.00 0.00 19 1013.5
20260502203743 88 146 11.0 14.0 0.00 0.00 0.00 18 1013.7
20260502203241 87 31 1.0 1.0 0.00 0.00 0.00 19 1013.8
20260502202735 87 68 8.0 10.0 0.00 0.00 0.00 19 1013.8
20260502202234 87 93 5.0 7.0 0.00 0.00 0.00 17 1013.9
20260502201731 86 146 3.0 4.0 0.00 0.00 0.00 16 1014.0
20260502201227 85 139 9.0 10.0 0.00 0.00 0.00 20 1014.0
20260502200723 85 276 2.0 3.0 0.00 0.00 0.00 18 1014.0
20260502200220 87 91 9.0 10.0 0.00 0.00 0.00 19 1014.0
20260502195718 87 56 4.0 6.0 0.00 0.00 0.00 20 1014.1
20260502195214 86 66 3.0 4.0 0.00 0.00 0.00 20 1014.5
20260502194711 86 73 9.0 15.0 0.00 0.00 0.00 20 1014.4
20260502194209 85 76 10.0 11.0 0.00 0.00 0.00 22 1014.1
20260502193704 84 115 6.0 8.0 0.00 0.00 0.00 19 1014.4
20260502193202 85 131 13.0 14.0 0.00 0.00 0.00 20 1014.4
20260502192656 85 114 9.0 13.0 0.00 0.00 0.00 21 1014.6
20260502192154 84 81 6.0 9.0 0.00 0.00 0.00 23 1014.5
20260502191651 84 72 2.0 2.0 0.00 0.00 0.00 22 1014.6
20260502191148 85 104 5.0 8.0 0.00 0.00 0.00 20 1014.7
20260502190646 84 129 14.0 17.0 0.00 0.00 0.00 22 1014.6
20260502190139 84 122 9.0 13.0 0.00 0.00 0.00 23 1015.0
20260502185638 83 86 6.0 8.0 0.00 0.00 0.00 23 1014.9
20260502185135 83 157 8.0 10.0 0.00 0.00 0.00 22 1015.0
20260502184631 84 123 11.0 11.0 0.00 0.00 0.00 23 1015.2
20260502184127 83 122 12.0 15.0 0.00 0.00 0.00 23 1015.1
20260502183623 84 93 10.0 13.0 0.00 0.00 0.00 23 1015.3
20260502183120 84 159 15.0 17.0 0.00 0.00 0.00 21 1015.1
20260502182614 83 92 6.0 8.0 0.00 0.00 0.00 22 1015.1
20260502182110 84 96 15.0 17.0 0.00 0.00 0.00 21 1015.6
20260502181609 84 116 13.0 14.0 0.00 0.00 0.00 21 1015.4
20260502181107 83 84 5.0 7.0 0.00 0.00 0.00 21 1015.5
20260502180604 84 109 12.0 14.0 0.00 0.00 0.00 21 1015.5
20260502170518 82 115 14.0 16.0 0.00 0.00 0.00 22 1015.7
20260502164002 81 68 7.0 10.0 0.00 0.00 0.00 21 1015.7
20260502163457 80 112 18.0 24.0 0.00 0.00 0.00 21 1015.5
20260502162955 80 94 11.0 11.0 0.00 0.00 0.00 21 1015.6
20260502162452 80 128 12.0 14.0 0.00 0.00 0.00 22 1015.6
20260502161949 80 104 12.0 16.0 0.00 0.00 0.00 22 1015.6
20260502161445 80 92 16.0 19.0 0.00 0.00 0.00 21 1015.4
20260502160944 80 106 15.0 18.0 0.00 0.00 0.00 22 1015.4
20260502160441 80 104 13.0 15.0 0.00 0.00 0.00 22 1015.3
20260502151929 78 112 11.0 13.0 0.00 0.00 0.00 22 1015.2
20260502151426 78 86 3.0 8.0 0.00 0.00 0.00 22 1015.0
20260502150924 78 105 12.0 13.0 0.00 0.00 0.00 22 1015.1
20260502150420 78 115 10.0 11.0 0.00 0.00 0.00 22 1015.0
20260502130306 66 77 1.0 2.0 0.00 0.00 0.00 27 1013.5
20260502123751 66 67 2.0 2.0 0.00 0.00 0.00 27 1013.1
20260502123248 65 33 0.0 1.0 0.00 0.00 0.00 27 1012.9
20260502122744 67 36 0.0 1.0 0.00 0.00 0.00 26 1012.8
20260502122241 67 45 0.0 1.0 0.00 0.00 0.00 27 1012.9
20260502121739 67 32 0.0 0.0 0.00 0.00 0.00 27 1012.9
20260502121237 67 32 0.0 1.0 0.00 0.00 0.00 26 1012.8
20260502120733 67 36 0.0 1.0 0.00 0.00 0.00 26 1013.1
20260502120230 67 34 1.0 1.0 0.00 0.00 0.00 26 1012.9
20260502115728 67 40 0.0 0.0 0.00 0.00 0.00 26 1013.0
20260502115224 67 33 0.0 1.0 0.00 0.00 0.00 26 1012.9
20260502114720 68 30 2.0 2.0 0.00 0.00 0.00 26 1012.9
20260502114218 68 41 1.0 1.0 0.00 0.00 0.00 26 1012.8
20260502113714 68 32 1.0 1.0 0.00 0.00 0.00 26 1012.9
20260502113212 68 35 0.0 1.0 0.00 0.00 0.00 26 1012.8
20260502112710 69 337 2.0 3.0 0.00 0.00 0.00 25 1012.8
20260502112208 69 19 1.0 1.0 0.00 0.00 0.00 25 1012.8
20260502111705 69 8 2.0 2.0 0.00 0.00 0.00 26 1012.9
20260502111202 68 12 1.0 1.0 0.00 0.00 0.00 26 1012.6
20260502110700 69 5 3.0 4.0 0.00 0.00 0.00 26 1012.8
20260502110157 69 33 1.0 2.0 0.00 0.00 0.00 25 1012.8
20260502105654 69 39 1.0 1.0 0.00 0.00 0.00 26 1012.8
20260502105151 70 33 1.0 1.0 0.00 0.00 0.00 26 1012.7
20260502104648 70 27 1.0 1.0 0.00 0.00 0.00 26 1012.9
20260502104146 71 27 0.0 1.0 0.00 0.00 0.00 25 1012.8
20260502103643 72 34 0.0 0.0 0.00 0.00 0.00 25 1012.8
20260502103141 72 44 1.0 1.0 0.00 0.00 0.00 25 1012.7
20260502102638 71 25 1.0 2.0 0.00 0.00 0.00 25 1012.5
20260502102134 71 50 1.0 1.0 0.00 0.00 0.00 25 1012.6
20260502101632 71 43 0.0 0.0 0.00 0.00 0.00 25 1012.5
20260502101131 72 286 2.0 2.0 0.00 0.00 0.00 24 1012.7
20260502100629 74 31 1.0 1.0 0.00 0.00 0.00 23 1012.6
20260502100127 75 41 0.0 1.0 0.00 0.00 0.00 23 1012.6
20260502091101 75 17 1.0 2.0 0.00 0.00 0.00 22 1012.1
20260502090558 75 98 2.0 4.0 0.00 0.00 0.00 22 1012.2
20260502071453 75 45 3.0 4.0 0.00 0.00 0.00 19 1012.3
20260502070951 75 343 6.0 8.0 0.00 0.00 0.00 18 1012.6
20260502070449 75 331 7.0 7.0 0.00 0.00 0.00 19 1012.2
20260502065947 76 27 3.0 3.0 0.00 0.00 0.00 19 1012.2
20260502065445 77 25 3.0 3.0 0.00 0.00 0.00 19 1012.1
20260502064943 77 324 2.0 4.0 0.00 0.00 0.00 19 1012.1
20260502064440 77 7 3.0 4.0 0.00 0.00 0.00 19 1012.0
20260502063937 77 24 2.0 2.0 0.00 0.00 0.00 19 1012.2
20260502063435 77 359 3.0 3.0 0.00 0.00 0.00 18 1012.1
20260502062932 77 355 4.0 7.0 0.00 0.00 0.00 18 1012.2
20260502062429 78 35 2.0 2.0 0.00 0.00 0.00 17 1011.9
20260502061928 78 25 2.0 3.0 0.00 0.00 0.00 17 1011.9
20260502061426 78 33 3.0 3.0 0.00 0.00 0.00 17 1012.0
20260502060921 79 76 2.0 3.0 0.00 0.00 0.00 17 1011.9
20260502060417 79 11 3.0 4.0 0.00 0.00 0.00 16 1011.9
20260502055914 80 13 5.0 8.0 0.00 0.00 0.00 16 1011.8
20260502055411 79 29 4.0 8.0 0.00 0.00 0.00 16 1011.8
20260502054906 78 356 2.0 4.0 0.00 0.00 0.00 17 1011.7
20260502054403 77 326 8.0 9.0 0.00 0.00 0.00 17 1012.0
20260502053900 75 339 9.0 10.0 0.00 0.00 0.00 17 1011.9
20260502053357 75 290 5.0 6.0 0.00 0.00 0.00 17 1011.6
20260502052854 74 351 5.0 6.0 0.00 0.00 0.00 17 1011.8
20260502052353 75 356 4.0 4.0 0.00 0.00 0.00 17 1011.9
20260502051850 75 344 4.0 4.0 0.00 0.00 0.00 17 1011.7
20260502051349 75 324 4.0 4.0 0.00 0.00 0.00 17 1011.8
20260502050845 76 328 4.0 4.0 0.00 0.00 0.00 17 1011.5
20260502050341 76 340 6.0 6.0 0.00 0.00 0.00 16 1011.4
20260502045838 77 336 4.0 4.0 0.00 0.00 0.00 16 1011.6
20260502045335 77 328 6.0 6.0 0.00 0.00 0.00 16 1011.5
20260502044832 77 331 4.0 4.0 0.00 0.00 0.00 16 1011.4
20260502044328 78 17 2.0 3.0 0.00 0.00 0.00 16 1011.2
20260502043826 78 336 6.0 7.0 0.00 0.00 0.00 16 1011.2
20260502043323 79 339 6.0 8.0 0.00 0.00 0.00 16 1011.2
20260502042822 80 312 7.0 9.0 0.00 0.00 0.00 15 1011.0
20260502042320 80 347 7.0 9.0 0.00 0.00 0.00 15 1011.1
20260502041817 80 337 5.0 7.0 0.00 0.00 0.00 15 1010.9
20260502041314 78 351 6.0 8.0 0.00 0.00 0.00 15 1010.9
20260502040811 78 12 1.0 1.0 0.00 0.00 0.00 17 1010.9
20260502040308 79 105 1.0 2.0 0.00 0.00 0.00 16 1010.6
20260502035804 79 35 0.0 1.0 0.00 0.00 0.00 16 1010.6
20260502035301 79 37 1.0 1.0 0.00 0.00 0.00 16 1010.5
20260502034758 80 325 4.0 4.0 0.00 0.00 0.00 16 1010.6
20260502034257 79 27 0.0 0.0 0.00 0.00 0.00 16 1010.6
20260502033754 80 32 0.0 1.0 0.00 0.00 0.00 16 1010.5
20260502033252 80 341 2.0 3.0 0.00 0.00 0.00 16 1010.4
20260502032748 81 318 4.0 4.0 0.00 0.00 0.00 16 1010.3
20260502032244 80 216 4.0 4.0 0.00 0.00 0.00 16 1010.2
20260502031743 80 30 0.0 1.0 0.00 0.00 0.00 16 1010.2
20260502031240 81 26 1.0 1.0 0.00 0.00 0.00 16 1010.0
20260502030739 81 14 1.0 1.0 0.00 0.00 0.00 16 1009.9
20260502030236 81 359 1.0 1.0 0.00 0.00 0.00 16 1009.9
20260502025733 81 33 2.0 2.0 0.00 0.00 0.00 16 1009.9
20260502025231 81 340 3.0 4.0 0.00 0.00 0.00 16 1009.9
20260502024729 82 13 2.0 2.0 0.00 0.00 0.00 16 1009.8
20260502024226 82 9 2.0 3.0 0.00 0.00 0.00 16 1010.0
20260502023724 82 68 2.0 2.0 0.00 0.00 0.00 15 1009.9
20260502023221 83 30 4.0 4.0 0.00 0.00 0.00 15 1009.7
20260502022719 83 307 4.0 4.0 0.00 0.00 0.00 15 1009.7
20260502022215 84 359 6.0 7.0 0.00 0.00 0.00 15 1009.4
20260502021713 84 328 5.0 7.0 0.00 0.00 0.00 15 1009.5
20260502021210 84 325 4.0 4.0 0.00 0.00 0.00 15 1009.7
20260502020707 84 349 3.0 3.0 0.00 0.00 0.00 15 1009.7
20260502020204 85 324 4.0 6.0 0.00 0.00 0.00 14 1009.4
20260502015702 85 296 5.0 7.0 0.00 0.00 0.00 14 1009.3
20260502015157 86 338 11.0 11.0 0.00 0.00 0.00 14 1009.4
20260502014655 86 340 6.0 10.0 0.00 0.00 0.00 14 1009.4
20260502014152 86 336 5.0 6.0 0.00 0.00 0.00 14 1009.5
20260502013648 86 324 9.0 11.0 0.00 0.00 0.00 14 1009.4
20260502013143 87 302 4.0 4.0 0.00 0.00 0.00 14 1009.2
20260502012641 87 302 6.0 9.0 0.00 0.00 0.00 14 1009.2
20260502012139 87 51 4.0 4.0 0.00 0.00 0.00 14 1009.1
20260502011636 87 245 5.0 7.0 0.00 0.00 0.00 14 1009.3
20260502011131 87 227 6.0 7.0 0.00 0.00 0.00 14 1009.4
20260502010629 87 309 3.0 3.0 0.00 0.00 0.00 14 1009.0
20260502010126 88 348 4.0 6.0 0.00 0.00 0.00 14 1009.2
20260502005623 88 315 5.0 6.0 0.00 0.00 0.00 14 1009.2
20260502005121 88 273 7.0 7.0 0.00 0.00 0.00 14 1009.2
20260502004616 89 330 6.0 7.0 0.00 0.00 0.00 14 1009.2
20260502004113 89 348 6.0 7.0 0.00 0.00 0.00 14 1009.3
20260502003611 90 6 1.0 2.0 0.00 0.00 0.00 14 1009.1
20260502003108 89 11 2.0 3.0 0.00 0.00 0.00 15 1009.2
20260502002604 87 86 2.0 2.0 0.00 0.00 0.00 15 1009.2
20260502002102 87 242 9.0 9.0 0.00 0.00 0.00 15 1009.1
20260502001559 88 242 9.0 10.0 0.00 0.00 0.00 15 1009.1
20260502001056 87 42 1.0 1.0 0.00 0.00 0.00 15 1009.3
20260502000554 88 107 3.0 3.0 0.00 0.00 0.00 16 1009.5
20260502000051 87 185 3.0 3.0 0.00 0.00 0.00 16 1009.3
20260501235547 88 163 4.0 4.0 0.00 0.00 0.00 16 1009.4
20260501235043 87 261 4.0 4.0 0.00 0.00 0.00 16 1009.4
20260501234539 87 242 7.0 8.0 0.00 0.00 0.00 17 1009.5
20260501234037 86 179 5.0 7.0 0.00 0.00 0.00 18 1009.3
20260501233535 87 128 4.0 4.0 0.00 0.00 0.00 18 1009.5
20260501233031 87 233 7.0 8.0 0.00 0.00 0.00 18 1009.2
20260501232527 88 232 6.0 7.0 0.00 0.00 0.00 17 1009.6
20260501232025 87 239 6.0 8.0 0.00 0.00 0.00 18 1009.6
20260501231523 87 265 4.0 4.0 0.00 0.00 0.00 19 1009.8
20260501231021 86 160 4.0 7.0 0.00 0.00 0.00 20 1009.5
20260501230520 86 144 6.0 7.0 0.00 0.00 0.00 20 1009.5
20260501230017 86 197 4.0 6.0 0.00 0.00 0.00 20 1009.5
20260501225515 87 193 8.0 10.0 0.00 0.00 0.00 20 1009.7
20260501225010 85 334 2.0 3.0 0.00 0.00 0.00 20 1009.8
20260501224508 89 195 4.0 6.0 0.00 0.00 0.00 18 1009.8
20260501224005 86 21 0.0 1.0 0.00 0.00 0.00 19 1009.7
20260501223501 86 256 8.0 10.0 0.00 0.00 0.00 20 1010.0
20260501222957 86 246 7.0 9.0 0.00 0.00 0.00 20 1010.1
20260501222454 87 102 2.0 3.0 0.00 0.00 0.00 20 1010.0
20260501221950 87 263 6.0 8.0 0.00 0.00 0.00 20 1010.2
20260501221447 86 62 2.0 3.0 0.00 0.00 0.00 21 1010.2
20260501220945 85 137 3.0 6.0 0.00 0.00 0.00 20 1010.3
20260501220443 86 49 1.0 1.0 0.00 0.00 0.00 20 1010.5
20260501215938 86 60 1.0 2.0 0.00 0.00 0.00 21 1010.5
20260501215435 85 13 2.0 2.0 0.00 0.00 0.00 20 1010.8